User: anonymous   Login
Location: Chmeli�t?
(49.8978°N, 15.0526°E)
Time: 02:46:38
(UTC+00:00)
Language:

Cosmos 2074 Rocket - Orbit

View from above orbital plane
View from above orbital plane
View from above satellite
View from above satellite

Ground track
Ground track

The orbit data is extracted from the following two-line orbital elements,

1 20578U 90036B   20221.57014828 +.00000129 +00000-0 +11678-3 0  9990
2 20578 082.9411 227.3339 0013025 012.2569 102.3306 13.76382042521665
Epoch (UTC): 08 August 2020 13:41:00
Eccentricity: 0.0013025
inclination: 82.9411°
perigee height: 967 km
apogee height: 986 km
right ascension of ascending node: 227.3339°
argument of perigee: 12.2569°
revolutions per day: 13.76382042
mean anomaly at epoch: 102.3306°
orbit number at epoch: 52166

The dashed part of the orbit path shows where the satellite is in the earth's shadow,  

DLR